[[{"header":{"parameterUnit":"m.s-1","parameterCategory":1,"la1":30.2991,"la2":30.254,"lo1":-89.0895,"lo2":-89.0444,"dy":0.0017,"dx":0.0017,"nx":28,"ny":28,"refTime":"2024-03-12T03:00:00:Z","depth":0,"parameterNumber":2,"parameterNumberName":"U-component_of_WINDS"},"data":[0,0,0,0,0,0,0,0,0,0,0,0,0,0,0,0,0,0,0,0,0,0,0,0,0,0,0,0,0,0,0,0,0,0,0,0,0,0,0,0,0,0,0,0,0,0,0,0,0,0,0,0,0,0,0,0,0,0,-0.6853,-0.6853,0,-0.6875,-0.6876,-0.6876,-0.6896,-0.6896,-0.6897,-0.6897,-0.692,-0.6921,-0.6921,0,0,0,0,0,0,0,0,0,0,0,0,0,-0.6828,-0.6828,-0.6853,-0.6853,-0.6853,-0.6875,-0.6876,-0.6876,-0.6896,-0.6896,-0.6897,-0.6897,-0.692,-0.6921,-0.6921,0,0,0,0,0,0,0,0,0,0,0,0,0,-0.6844,-0.6829,-0.6853,-0.6866,-0.6867,-0.6875,-0.6876,-0.6876,-0.6896,-0.6896,-0.6897,-0.6897,-0.692,-0.6921,-0.6921,-0.6918,0,0,-0.6923,-0.6923,0,0,0,0,0,0,0,0,-0.6843,-0.6844,-0.6864,-0.6865,-0.6867,-0.6883,-0.6876,-0.689,-0.6896,-0.6885,-0.6897,-0.6897,-0.6908,-0.6909,-0.6913,-0.6919,-0.692,-0.6923,-0.6923,-0.6924,-0.6924,0,0,0,0,0,0,0,-0.6842,-0.6844,-0.6862,-0.6864,-0.6866,-0.6871,-0.6874,-0.6878,-0.6894,-0.6886,-0.6888,-0.689,-0.6909,-0.6912,-0.6914,-0.692,-0.6923,-0.6924,-0.6924,-0.6924,-0.6925,-0.6925,0,0,0,0,0,0,-0.6838,-0.6843,-0.6861,-0.6862,-0.6855,-0.6871,-0.6874,-0.6878,-0.6894,-0.6897,-0.689,-0.6891,-0.6911,-0.6913,-0.6914,-0.6912,-0.6924,-0.6924,-0.6925,-0.6925,-0.6925,-0.6925,0,0,0,0,0,0,-0.6838,-0.684,-0.686,-0.6853,-0.6856,-0.6871,-0.6875,-0.6878,-0.6881,-0.6897,-0.69,-0.689,-0.6911,-0.6914,-0.6917,-0.6913,-0.6925,-0.6925,-0.6926,-0.6925,-0.6925,-0.6906,0,0,0,0,0,0,-0.6837,-0.6839,-0.6838,-0.6853,-0.6856,-0.6862,-0.6875,-0.6878,-0.6882,-0.6884,-0.6898,-0.6901,-0.6912,-0.6916,-0.6917,-0.6914,-0.6926,-0.6926,-0.6926,-0.6925,-0.6907,-0.6905,-0.6904,0,0,0,0,0,-0.6836,-0.6832,-0.6838,-0.684,-0.6855,-0.6861,-0.6864,-0.6876,-0.6882,-0.6881,-0.6891,-0.6901,-0.6913,-0.6916,-0.6918,-0.6915,-0.6927,-0.6926,-0.6925,-0.6908,-0.6906,-0.6904,0,0,0,0,0,0,-0.6816,-0.6834,-0.6841,-0.6841,-0.685,-0.6865,-0.6864,-0.6873,-0.688,-0.6881,-0.6896,-0.6899,-0.6901,-0.6908,-0.6911,-0.6913,-0.6921,-0.6921,-0.6908,-0.6906,-0.6904,-0.6902,-0.6926,0,0,0,0,0,-0.6812,-0.6816,-0.6831,-0.683,-0.6834,-0.6848,-0.6851,-0.686,-0.687,-0.6874,-0.6884,-0.6893,-0.6899,-0.6903,-0.6909,-0.6909,-0.6912,-0.6907,-0.6905,-0.6904,-0.6903,-0.6905,-0.6903,-0.6922,-0.6922,-0.6922,0,0,-0.6803,-0.6813,-0.6814,-0.6826,-0.6834,-0.6838,-0.6851,-0.6854,-0.6858,-0.6874,-0.6878,-0.6886,-0.6897,-0.6899,-0.69,-0.6905,-0.6899,-0.6903,-0.6901,-0.6902,-0.6904,-0.6902,-0.69,-0.6922,-0.6922,-0.6922,0,0,-0.6789,-0.6796,-0.6797,-0.6804,-0.6816,-0.6825,-0.6825,-0.6839,-0.6845,-0.6849,-0.6862,-0.6866,-0.6876,-0.6884,-0.6889,-0.6879,-0.6888,-0.688,-0.687,-0.6871,-0.687,-0.6869,-0.6865,-0.6864,-0.688,-0.688,-0.688,0,-0.6776,-0.6783,-0.6796,-0.6799,-0.6804,-0.6819,-0.682,-0.6826,-0.6839,-0.6843,-0.6848,-0.6861,-0.687,-0.6874,-0.6871,-0.6875,-0.6876,-0.6879,-0.6869,-0.6868,-0.6867,-0.6864,-0.6863,-0.6879,-0.6879,-0.6879,-0.6879,0,-0.6767,-0.6771,-0.677,-0.6782,-0.6787,-0.6789,-0.6803,-0.6806,-0.6815,-0.6824,-0.6829,-0.684,-0.6849,-0.685,-0.6859,-0.6856,-0.6859,-0.6866,-0.6875,-0.6864,-0.6861,-0.686,-0.6877,-0.6878,-0.6878,-0.6878,0,0,-0.6741,-0.6761,-0.676,-0.6766,-0.678,-0.6784,-0.6787,-0.6796,-0.6799,-0.6807,-0.6811,-0.6819,-0.6826,-0.6832,-0.6842,-0.6842,-0.6834,-0.685,-0.685,-0.6847,-0.6833,-0.6827,-0.6826,-0.684,-0.684,-0.684,-0.6832,0,-0.6729,-0.6735,-0.6747,-0.6749,-0.6754,-0.6769,-0.6771,-0.678,-0.6789,-0.6795,-0.6804,-0.681,-0.6819,-0.6823,-0.6824,-0.6835,-0.6832,-0.6836,-0.6844,-0.6844,-0.6841,-0.6824,-0.6818,-0.681,-0.6831,-0.6831,-0.6831,0,-0.6717,-0.6725,-0.6727,-0.6742,-0.6744,-0.6746,-0.6756,-0.676,-0.6771,-0.6778,-0.6785,-0.6795,-0.6799,-0.6808,-0.6814,-0.6817,-0.6821,-0.6827,-0.6827,-0.6828,-0.6837,-0.6826,-0.6808,-0.6806,-0.6829,-0.6829,-0.683,0,-0.6698,-0.6709,-0.6712,-0.6717,-0.6734,-0.6735,-0.6742,-0.6753,-0.6758,-0.6767,-0.677,-0.6779,-0.6784,-0.6791,-0.6804,-0.6809,-0.6809,-0.6818,-0.6815,-0.6815,-0.6815,-0.6815,-0.6797,-0.6817,-0.6817,-0.6817,-0.6817,0,-0.6684,-0.6685,-0.6704,-0.6706,-0.6708,-0.6723,-0.6724,-0.6733,-0.6743,-0.6747,-0.676,-0.6764,-0.678,-0.6786,-0.6796,-0.6801,-0.6803,-0.6808,-0.6811,-0.6807,-0.6807,-0.6811,-0.6812,-0.6817,-0.6817,-0.6817,-0.6817,0,-0.6664,-0.6677,-0.6681,-0.6697,-0.6701,-0.6701,-0.6715,-0.6718,-0.6728,-0.6733,-0.6735,-0.675,-0.6758,-0.6771,-0.6783,-0.679,-0.6792,-0.6796,-0.6788,-0.679,-0.6786,-0.6787,-0.6771,-0.677,-0.679,-0.679,-0.6789,0,-0.6655,-0.6656,-0.6672,-0.6675,-0.6682,-0.6688,-0.6693,-0.6707,-0.6712,-0.6725,-0.6726,-0.6735,-0.6743,-0.6754,-0.6767,-0.6776,-0.6781,-0.6775,-0.6782,-0.6779,-0.6782,-0.6782,-0.6782,-0.6773,-0.6773,-0.6773,-0.6773,0,-0.6637,-0.6643,-0.665,-0.6659,-0.6665,-0.6673,-0.6681,-0.6684,-0.67,-0.6705,-0.6713,-0.6719,-0.6731,-0.674,-0.6751,-0.6758,-0.6768,-0.677,-0.677,-0.6766,-0.6762,-0.6765,-0.6784,-0.677,-0.6771,-0.6771,-0.6771,-0.6771,-0.6622,-0.6624,-0.6636,-0.6643,-0.6651,-0.6659,-0.6662,-0.6673,-0.668,-0.669,-0.6698,-0.6706,-0.6718,-0.6733,-0.6741,-0.6747,-0.6752,-0.6751,-0.6751,-0.6751,-0.675,-0.6761,-0.6749,-0.6749,-0.6749,-0.6749,-0.6749,0,-0.6605,-0.6614,-0.662,-0.6632,-0.6638,-0.6647,-0.6657,-0.6661,-0.6668,-0.6678,-0.6685,-0.6695,-0.6703,-0.6717,-0.6726,-0.6729,-0.6734,-0.6731,-0.6732,-0.6733,-0.6745,-0.6744,-0.6727,-0.6727,-0.6727,-0.6727,-0.6727,-0.6727,-0.6597,-0.6602,-0.6609,-0.6618,-0.6626,-0.6634,-0.6639,-0.6646,-0.6655,-0.6665,-0.6672,-0.668,-0.6692,-0.6703,-0.6711,-0.6715,-0.6718,-0.6714,-0.6719,-0.673,-0.6732,-0.6734,-0.6734,-0.6715,-0.6715,-0.6707,-0.6707,-0.6707]},{"header":{"parameterUnit":"m.s-1","parameterCategory":1,"la1":30.2991,"la2":30.254,"lo1":-89.0895,"lo2":-89.0444,"dy":0.0017,"dx":0.0017,"nx":28,"ny":28,"refTime":"2024-03-12T03:00:00:Z","depth":0,"parameterNumber":3,"parameterNumberName":"V-component_of_WINDS"},"data":[0,0,0,0,0,0,0,0,0,0,0,0,0,0,0,0,0,0,0,0,0,0,0,0,0,0,0,0,0,0,0,0,0,0,0,0,0,0,0,0,0,0,0,0,0,0,0,0,0,0,0,0,0,0,0,0,0,0,-0.85,-0.8501,0,-0.8522,-0.8522,-0.8523,-0.8565,-0.8565,-0.8566,-0.8567,-0.8588,-0.8588,-0.8588,0,0,0,0,0,0,0,0,0,0,0,0,0,-0.8495,-0.8495,-0.85,-0.8501,-0.8501,-0.8522,-0.8522,-0.8523,-0.8564,-0.8565,-0.8566,-0.8567,-0.8588,-0.8588,-0.8588,0,0,0,0,0,0,0,0,0,0,0,0,0,-0.8505,-0.8495,-0.85,-0.8524,-0.8527,-0.8522,-0.8522,-0.8523,-0.8564,-0.8565,-0.8567,-0.8568,-0.8588,-0.8588,-0.8588,-0.8561,0,0,-0.8587,-0.8587,0,0,0,0,0,0,0,0,-0.8504,-0.8505,-0.852,-0.8523,-0.8525,-0.8542,-0.8528,-0.8536,-0.8564,-0.855,-0.8567,-0.8568,-0.8572,-0.8573,-0.8574,-0.8562,-0.8563,-0.8587,-0.8587,-0.8587,-0.8587,0,0,0,0,0,0,0,-0.8503,-0.8504,-0.8509,-0.8521,-0.8524,-0.8534,-0.8537,-0.853,-0.8554,-0.8551,-0.8554,-0.8556,-0.8573,-0.8574,-0.8575,-0.8563,-0.8587,-0.8587,-0.8586,-0.8586,-0.8531,-0.853,0,0,0,0,0,0,-0.8499,-0.8503,-0.8508,-0.851,-0.8518,-0.8533,-0.8536,-0.8535,-0.8554,-0.8558,-0.8555,-0.8558,-0.8574,-0.8575,-0.8576,-0.8546,-0.8587,-0.8586,-0.8586,-0.8532,-0.8531,-0.8529,0,0,0,0,0,0,-0.8499,-0.8499,-0.8507,-0.8507,-0.8509,-0.8532,-0.853,-0.8535,-0.8536,-0.8557,-0.8561,-0.8552,-0.8575,-0.8576,-0.8565,-0.8547,-0.8586,-0.8586,-0.8534,-0.8532,-0.853,-0.8485,0,0,0,0,0,0,-0.8499,-0.8499,-0.8489,-0.8507,-0.8509,-0.8495,-0.8529,-0.8535,-0.8536,-0.854,-0.8555,-0.8559,-0.8576,-0.8565,-0.8564,-0.8547,-0.8586,-0.8535,-0.8533,-0.8531,-0.8488,-0.8482,-0.8477,0,0,0,0,0,-0.8498,-0.8475,-0.8488,-0.8489,-0.8497,-0.8494,-0.8496,-0.8517,-0.8534,-0.8524,-0.8538,-0.8558,-0.8549,-0.8563,-0.8563,-0.8546,-0.8537,-0.8534,-0.8531,-0.8491,-0.8483,-0.8477,0,0,0,0,0,0,-0.8454,-0.8478,-0.8493,-0.8475,-0.8482,-0.8501,-0.849,-0.8508,-0.851,-0.8514,-0.854,-0.8543,-0.8528,-0.8536,-0.8551,-0.8521,-0.8546,-0.8543,-0.8516,-0.8509,-0.8503,-0.8501,-0.8585,0,0,0,0,0,-0.8443,-0.8439,-0.846,-0.8442,-0.8445,-0.8467,-0.8466,-0.8482,-0.8491,-0.8494,-0.8507,-0.8514,-0.8513,-0.8512,-0.8512,-0.849,-0.8494,-0.8478,-0.8472,-0.8468,-0.8464,-0.8453,-0.8446,-0.852,-0.852,-0.852,0,0,-0.8418,-0.8431,-0.8426,-0.8433,-0.8441,-0.8436,-0.8469,-0.8462,-0.8459,-0.8493,-0.8482,-0.8492,-0.8502,-0.8485,-0.8479,-0.8492,-0.8445,-0.8464,-0.846,-0.8459,-0.845,-0.8443,-0.8436,-0.8518,-0.8518,-0.8518,0,0,-0.8371,-0.838,-0.8366,-0.8374,-0.8385,-0.84,-0.8396,-0.8413,-0.8421,-0.8411,-0.8437,-0.8433,-0.8431,-0.8437,-0.844,-0.8396,-0.8415,-0.8396,-0.8364,-0.8353,-0.8347,-0.8342,-0.8326,-0.832,-0.8392,-0.8392,-0.8392,0,-0.8339,-0.8333,-0.8357,-0.8349,-0.8351,-0.8382,-0.8368,-0.8374,-0.8385,-0.8386,-0.84,-0.8399,-0.8408,-0.8393,-0.8382,-0.8383,-0.838,-0.8393,-0.8346,-0.8342,-0.8337,-0.8322,-0.8316,-0.839,-0.839,-0.839,-0.8391,0,-0.8292,-0.8288,-0.8275,-0.8285,-0.8286,-0.8275,-0.8298,-0.8296,-0.8312,-0.8325,-0.8315,-0.8327,-0.833,-0.8328,-0.8343,-0.8315,-0.8323,-0.8342,-0.8367,-0.8327,-0.8314,-0.8308,-0.8386,-0.8387,-0.8388,-0.8388,0,0,-0.8216,-0.8241,-0.8236,-0.8241,-0.8256,-0.8253,-0.8244,-0.8247,-0.8245,-0.8252,-0.8244,-0.8242,-0.826,-0.8263,-0.828,-0.827,-0.8234,-0.829,-0.8291,-0.8279,-0.8204,-0.8189,-0.8182,-0.8248,-0.8247,-0.8246,-0.8203,0,-0.8172,-0.8157,-0.8179,-0.8159,-0.8155,-0.8186,-0.8177,-0.8186,-0.8198,-0.8197,-0.8211,-0.8208,-0.8232,-0.8234,-0.8227,-0.824,-0.822,-0.8244,-0.824,-0.824,-0.8236,-0.8175,-0.8159,-0.8117,-0.8198,-0.8197,-0.8196,0,-0.8117,-0.8122,-0.8102,-0.8119,-0.8118,-0.811,-0.8115,-0.8114,-0.8124,-0.8134,-0.8138,-0.8158,-0.815,-0.8176,-0.8165,-0.8181,-0.8182,-0.8188,-0.8187,-0.8187,-0.8215,-0.8172,-0.8105,-0.8098,-0.8188,-0.8189,-0.8189,0,-0.8063,-0.8064,-0.8052,-0.8056,-0.8076,-0.8069,-0.8077,-0.8089,-0.809,-0.8095,-0.8096,-0.81,-0.8101,-0.8104,-0.8125,-0.8142,-0.8111,-0.8139,-0.8119,-0.8118,-0.811,-0.811,-0.8041,-0.8112,-0.8112,-0.8112,-0.8112,0,-0.801,-0.7996,-0.8028,-0.8021,-0.8006,-0.8032,-0.8017,-0.8028,-0.8039,-0.8034,-0.8061,-0.8056,-0.8084,-0.8082,-0.8098,-0.8087,-0.8087,-0.8095,-0.8099,-0.8092,-0.8091,-0.8091,-0.8094,-0.811,-0.8111,-0.8111,-0.8111,0,-0.7946,-0.7967,-0.7956,-0.7976,-0.7981,-0.7969,-0.7987,-0.7981,-0.7995,-0.7989,-0.7989,-0.8012,-0.8011,-0.8032,-0.8036,-0.8047,-0.8028,-0.8038,-0.8024,-0.8027,-0.8005,-0.8007,-0.7933,-0.7925,-0.8002,-0.8001,-0.8,0,-0.7911,-0.7901,-0.792,-0.7919,-0.7926,-0.7924,-0.7925,-0.795,-0.7951,-0.7962,-0.7955,-0.7956,-0.7959,-0.7956,-0.7973,-0.7976,-0.7985,-0.796,-0.7986,-0.7979,-0.7984,-0.7984,-0.7983,-0.7954,-0.7953,-0.7952,-0.7951,0,-0.7845,-0.7856,-0.7857,-0.7861,-0.7862,-0.7867,-0.7874,-0.7871,-0.7899,-0.7898,-0.7898,-0.7899,-0.7903,-0.7904,-0.7911,-0.7919,-0.7939,-0.7943,-0.7939,-0.793,-0.7922,-0.7926,-0.8008,-0.7944,-0.7945,-0.7945,-0.7946,-0.7946,-0.7793,-0.7786,-0.7799,-0.7799,-0.7807,-0.7812,-0.7808,-0.7822,-0.7823,-0.7828,-0.7843,-0.784,-0.7852,-0.7862,-0.7869,-0.7867,-0.788,-0.7873,-0.7871,-0.7869,-0.7865,-0.7924,-0.7868,-0.7869,-0.7869,-0.7869,-0.7869,0,-0.7728,-0.7738,-0.7738,-0.7747,-0.7747,-0.7767,-0.7776,-0.7775,-0.7772,-0.7781,-0.7783,-0.7783,-0.7784,-0.7802,-0.7805,-0.7801,-0.781,-0.7801,-0.7801,-0.7802,-0.7853,-0.7857,-0.7793,-0.7793,-0.7793,-0.7793,-0.7793,-0.7793,-0.7694,-0.7683,-0.7696,-0.7689,-0.7699,-0.7696,-0.77,-0.7705,-0.7713,-0.7711,-0.7713,-0.7724,-0.7737,-0.7742,-0.7744,-0.7749,-0.7749,-0.7736,-0.7744,-0.7791,-0.7799,-0.7806,-0.7809,-0.7736,-0.7736,-0.7693,-0.7693,-0.7692]}]]